JBU8354 KJFK-KISP

Flight info

Callsign JBU8354
Flight time 0h 18m
Altitude 5000
Route DPK
Aircraft A320/M-SDE3FGHIRWY/LB1

Departure

Time 2026-05-06 18:13
Airport John F. Kennedy International Airport (KJFK)

Arrival

Time 2026-05-06 18:32
Airport Long Island MacArthur Airport (KISP)
Time Latitude Longitude Altitude Speed Heading
2026-05-06 17:47 40.65298 -73.78825 23 ft 0 kts 143°
2026-05-06 17:55 40.65307 -73.78837 23 ft 3 kts 141°
2026-05-06 17:55 40.65326 -73.78846 23 ft 3 kts 186°
2026-05-06 17:56 40.65339 -73.78842 24 ft 0 kts 213°
2026-05-06 17:56 40.65338 -73.78842 24 ft 1 kts 213°
2026-05-06 17:57 40.65328 -73.78851 23 ft 1 kts 216°
2026-05-06 17:57 40.65314 -73.78876 26 ft 3 kts 240°
2026-05-06 17:57 40.65308 -73.78889 26 ft 0 kts 242°
2026-05-06 18:04 40.65307 -73.78892 23 ft 1 kts 241°
2026-05-06 18:04 40.65302 -73.78906 23 ft 4 kts 241°
2026-05-06 18:04 40.65279 -73.78973 25 ft 11 kts 247°
2026-05-06 18:04 40.65232 -73.78975 23 ft 8 kts 120°
2026-05-06 18:05 40.65218 -73.78900 24 ft 9 kts 98°
2026-05-06 18:05 40.65223 -73.78804 26 ft 13 kts 75°
2026-05-06 18:05 40.65268 -73.78683 25 ft 17 kts 61°
2026-05-06 18:05 40.65327 -73.78545 24 ft 18 kts 60°
2026-05-06 18:06 40.65386 -73.78405 25 ft 17 kts 60°
2026-05-06 18:06 40.65444 -73.78268 26 ft 17 kts 61°
2026-05-06 18:06 40.65492 -73.78144 24 ft 14 kts 80°
2026-05-06 18:06 40.65457 -73.78035 24 ft 13 kts 121°
2026-05-06 18:07 40.65407 -73.77926 24 ft 14 kts 121°
2026-05-06 18:07 40.65354 -73.77809 24 ft 15 kts 121°
2026-05-06 18:07 40.65295 -73.77679 24 ft 18 kts 121°
2026-05-06 18:07 40.65224 -73.77524 23 ft 21 kts 121°
2026-05-06 18:08 40.65145 -73.77350 24 ft 24 kts 121°
2026-05-06 18:08 40.65051 -73.77142 24 ft 27 kts 121°
2026-05-06 18:08 40.64957 -73.76935 24 ft 19 kts 121°
2026-05-06 18:08 40.64890 -73.76787 25 ft 15 kts 120°
2026-05-06 18:09 40.64901 -73.76682 26 ft 13 kts 33°
2026-05-06 18:09 40.64978 -73.76621 24 ft 13 kts 31°
2026-05-06 18:09 40.65056 -73.76559 24 ft 13 kts 31°
2026-05-06 18:09 40.65101 -73.76487 25 ft 7 kts 95°
2026-05-06 18:10 40.65092 -73.76459 27 ft 0 kts 120°
2026-05-06 18:12 40.65087 -73.76448 27 ft 4 kts 120°
2026-05-06 18:12 40.65070 -73.76410 26 ft 7 kts 120°
2026-05-06 18:12 40.65030 -73.76362 28 ft 8 kts 178°
2026-05-06 18:13 40.64969 -73.76396 25 ft 15 kts 210°
2026-05-06 18:13 40.64665 -73.76634 23 ft 95 kts 211°
2026-05-06 18:13 40.63891 -73.77253 256 ft 152 kts 206°
2026-05-06 18:13 40.62896 -73.78013 896 ft 175 kts 210°
2026-05-06 18:14 40.61773 -73.78876 1586 ft 198 kts 211°
2026-05-06 18:14 40.60537 -73.79815 2216 ft 219 kts 211°
2026-05-06 18:14 40.59172 -73.80799 2756 ft 229 kts 211°
2026-05-06 18:14 40.57750 -73.81785 3288 ft 231 kts 210°
2026-05-06 18:15 40.56286 -73.82672 3755 ft 234 kts 200°
2026-05-06 18:15 40.54635 -73.82700 3951 ft 246 kts 173°
2026-05-06 18:15 40.53092 -73.81600 3976 ft 264 kts 145°
2026-05-06 18:15 40.52044 -73.79547 3971 ft 282 kts 117°
2026-05-06 18:16 40.51778 -73.76945 3974 ft 296 kts 90°
2026-05-06 18:16 40.52397 -73.74340 3970 ft 304 kts 62°
2026-05-06 18:16 40.53756 -73.72216 3973 ft 305 kts 42°
2026-05-06 18:16 40.55382 -73.70416 3971 ft 305 kts 38°
2026-05-06 18:17 40.57042 -73.68680 3973 ft 305 kts 37°
2026-05-06 18:17 40.58713 -73.66937 3973 ft 306 kts 37°
2026-05-06 18:17 40.60386 -73.65195 3973 ft 307 kts 37°
2026-05-06 18:17 40.62053 -73.63465 3976 ft 307 kts 37°
2026-05-06 18:18 40.63730 -73.61709 3971 ft 307 kts 40°
2026-05-06 18:18 40.65045 -73.59510 3972 ft 305 kts 67°
2026-05-06 18:18 40.65643 -73.56907 3987 ft 300 kts 84°
2026-05-06 18:18 40.65970 -73.54194 3992 ft 299 kts 87°
2026-05-06 18:19 40.66263 -73.51473 3988 ft 299 kts 87°
2026-05-06 18:19 40.66561 -73.48759 3990 ft 299 kts 87°
2026-05-06 18:19 40.66856 -73.46053 3992 ft 299 kts 87°
2026-05-06 18:19 40.67146 -73.43450 3999 ft 300 kts 87°
2026-05-06 18:20 40.67455 -73.40714 3999 ft 300 kts 87°
2026-05-06 18:20 40.67767 -73.37979 4000 ft 300 kts 87°
2026-05-06 18:20 40.68069 -73.35259 3999 ft 300 kts 87°
2026-05-06 18:20 40.68371 -73.32533 4018 ft 300 kts 87°
2026-05-06 18:21 40.68703 -73.29829 4002 ft 302 kts 82°
2026-05-06 18:21 40.69413 -73.27188 4003 ft 307 kts 70°
2026-05-06 18:21 40.70172 -73.24600 4004 ft 306 kts 76°
2026-05-06 18:21 40.70823 -73.21938 3956 ft 306 kts 77°
2026-05-06 18:22 40.71466 -73.19261 3712 ft 304 kts 77°
2026-05-06 18:22 40.72099 -73.16621 3448 ft 301 kts 77°
2026-05-06 18:22 40.72727 -73.13982 3184 ft 300 kts 77°
2026-05-06 18:22 40.73346 -73.11327 2946 ft 302 kts 77°
2026-05-06 18:23 40.73953 -73.08761 2725 ft 283 kts 77°
2026-05-06 18:23 40.74544 -73.06351 2534 ft 269 kts 77°
2026-05-06 18:23 40.75128 -73.04026 2356 ft 264 kts 77°
2026-05-06 18:23 40.75703 -73.01762 2163 ft 256 kts 77°
2026-05-06 18:24 40.76279 -72.99552 2022 ft 254 kts 77°
2026-05-06 18:24 40.76861 -72.97350 2015 ft 255 kts 77°
2026-05-06 18:24 40.77449 -72.95145 2008 ft 254 kts 77°
2026-05-06 18:24 40.78036 -72.92988 2019 ft 256 kts 77°
2026-05-06 18:25 40.78695 -72.90757 1997 ft 258 kts 67°
2026-05-06 18:25 40.79880 -72.89010 1994 ft 254 kts 32°
2026-05-06 18:25 40.81469 -72.88275 2030 ft 243 kts 358°
2026-05-06 18:25 40.83055 -72.88636 2022 ft 223 kts 326°
2026-05-06 18:26 40.84388 -72.89555 2020 ft 211 kts 318°
2026-05-06 18:26 40.85641 -72.90542 2002 ft 206 kts 317°
2026-05-06 18:26 40.86858 -72.91489 2007 ft 201 kts 317°
2026-05-06 18:26 40.88064 -72.92424 2009 ft 200 kts 316°
2026-05-06 18:27 40.89171 -72.93469 2006 ft 186 kts 297°
2026-05-06 18:27 40.89599 -72.94900 2008 ft 159 kts 262°
2026-05-06 18:27 40.89483 -72.96310 2010 ft 151 kts 247°
2026-05-06 18:27 40.89055 -72.97535 2008 ft 145 kts 232°
2026-05-06 18:28 40.88430 -72.98571 2008 ft 143 kts 225°
2026-05-06 18:28 40.87751 -72.99514 2001 ft 139 kts 223°
2026-05-06 18:28 40.87084 -73.00391 1990 ft 131 kts 223°
2026-05-06 18:28 40.86469 -73.01202 1892 ft 119 kts 223°
2026-05-06 18:29 40.85923 -73.01926 1747 ft 106 kts 222°
2026-05-06 18:29 40.85398 -73.02619 1595 ft 109 kts 221°
2026-05-06 18:29 40.84868 -73.03321 1440 ft 104 kts 221°
2026-05-06 18:29 40.84363 -73.03988 1297 ft 103 kts 220°
2026-05-06 18:30 40.83851 -73.04662 1165 ft 103 kts 220°
2026-05-06 18:30 40.83515 -73.05108 1066 ft 101 kts 220°
2026-05-06 18:30 40.82854 -73.05979 866 ft 107 kts 219°
2026-05-06 18:30 40.82500 -73.06447 776 ft 109 kts 219°
2026-05-06 18:31 40.81967 -73.07150 622 ft 107 kts 221°
2026-05-06 18:31 40.81443 -73.07852 470 ft 108 kts 220°
2026-05-06 18:31 40.80913 -73.08550 330 ft 109 kts 222°
2026-05-06 18:31 40.80371 -73.09261 192 ft 109 kts 221°
2026-05-06 18:32 40.79847 -73.09954 103 ft 99 kts 221°
2026-05-06 18:32 40.79450 -73.10474 103 ft 55 kts 225°
2026-05-06 18:32 40.79280 -73.10696 101 ft 16 kts 218°
2026-05-06 18:32 40.79161 -73.10719 99 ft 11 kts 180°
2026-05-06 18:33 40.79112 -73.10644 98 ft 17 kts 89°
2026-05-06 18:33 40.79111 -73.10435 99 ft 29 kts 90°
2026-05-06 18:33 40.79112 -73.10241 99 ft 14 kts 90°
2026-05-06 18:33 40.79112 -73.10124 99 ft 12 kts 90°
2026-05-06 18:34 40.79112 -73.10023 98 ft 11 kts 90°
2026-05-06 18:34 40.79112 -73.09929 98 ft 10 kts 90°
2026-05-06 18:34 40.79112 -73.09845 99 ft 9 kts 90°
2026-05-06 18:34 40.79112 -73.09768 99 ft 8 kts 91°
2026-05-06 18:35 40.79079 -73.09730 99 ft 7 kts 174°
2026-05-06 18:35 40.79050 -73.09729 100 ft 1 kts 180°
2026-05-06 18:35 40.79049 -73.09729 100 ft 0 kts 179°